Flag for U.S.A. Weather past 2 weeks in Pocatello, Idaho, U.S.A.

Now
29 °F

Clear.


Feels Like: 25 °F
Forecast: 35 / 62 °F
Wind: 3 mph from Northeast

Location: Pocatello Regional Airport

Current Time: Oct 22, 2014 at 6:38:46 AM

Latest Report: Oct 22, 2014 at 5:53 AM


Visibility: 10 mi

Pressure: 30.16 "Hg

Humidity: 93%

Dew point: 27 °F

Location of PocatelloLocation

Historic Weather in Pocatello — Graph

°F

Pocatello temperature yesterday

Maximum temperature yesterday: 68 °F (at 1:53 AM)
Minimum temperature yesterday: 40 °F (at 10:53 PM)
Average temperature yesterday: 52 °F

Past Weeks' High & Low Weather Summary

 TemperatureHumidityPressure
High78 °F (Oct 20, 2:53 PM)97% (Oct 8, 4:53 AM)30.29 "Hg (Oct 8, 4:53 AM)
Low28 °F (Oct 17, 4:53 AM)15% (Oct 8, 4:53 PM)29.63 "Hg (Oct 21, 3:53 AM)
Average52 °F55%30.01 "Hg
* Reported Oct 7 4:53 AM — Oct 22 4:53 AM, Pocatello, Weather by CustomWeather, © 2014

Note: Actual official high and low records may vary slightly from our data, if they occured in-between our weather recording intervals... More about our weather records

Advertising

Pocatello weather history for previous 24 hours

 ConditionsComfort  
Time TempWeatherWind HumidityBarometerVisibility
4:53 AM
Oct 22
32 °FClear.No wind88%30.15 "Hg10 mi
3:53 AM34 °FClear.No wind88%30.13 "Hg10 mi
2:53 AM33 °FClear.No wind85%30.13 "Hg10 mi
1:53 AM36 °FClear.6 mph82%30.11 "Hg10 mi
12:53 AM39 °FClear.9 mph76%30.10 "Hg10 mi
11:53 PM
Oct 21
42 °FClear.9 mph73%30.10 "Hg10 mi
10:53 PM40 °FClear.3 mph77%30.11 "Hg10 mi
9:53 PM45 °FClear.14 mph68%30.08 "Hg10 mi
8:53 PM43 °FClear.9 mph76%30.09 "Hg10 mi
7:53 PM47 °FSunny.10 mph66%30.06 "Hg10 mi
6:53 PM49 °FPartly sunny.22 mph59%30.03 "Hg10 mi
5:53 PM50 °FPartly sunny.15 mph59%30.01 "Hg10 mi
4:53 PM50 °FPartly sunny.23 mph59%29.97 "Hg10 mi
3:53 PM52 °FPartly sunny.22 mph53%29.96 "Hg10 mi
2:53 PM53 °FPartly sunny.22 mph52%29.94 "Hg10 mi
1:53 PM51 °FBroken clouds.17 mph56%29.95 "Hg10 mi
12:53 PM52 °FPassing clouds.18 mph57%29.96 "Hg10 mi
11:53 AM49 °FLight rain. Broken clouds.14 mph66%29.99 "Hg10 mi
10:53 AM45 °FLight rain. Partly sunny.14 mph76%29.96 "Hg10 mi
9:53 AM44 °FLight rain. Cloudy.18 mph79%29.96 "Hg10 mi
8:53 AM44 °FLight rain. Passing clouds.25 mph79%29.95 "Hg10 mi
7:56 AM47 °FLight rain. Mostly cloudy.31 mph86%29.97 "Hg10 mi
6:53 AM50 °FLight rain. Passing clouds.17 mph74%29.82 "Hg10 mi
Weather by CustomWeather, © 2014

See weather overviewHow to use our weather pages